Temp
-8 -8 -9 -8 -8 -8 -8 -8 -8 -7 -7 -7 -7 -7 -7 -7 -7 -7 -7 -7 -7 -6 -6 -6 -6 -6 -7 -6 -6 -6 -7 -8 -8 -8 -7 -8 -7 -7 -7 -7 -7 -6 -6 -6 -6 -6 -6 -5 -5
-9 -9 -9 -9 -9 -8 -8 -8 -8 -7 -7 -7 -7 -7 -7 -7 -7 -7 -7 -7 -7 -6 -6 -6 -6 -6 -7 -7 -7 -7 -7 -8 -8 -8 -8 -7 -7 -7 -7 -7 -7 -7 -6 -6 -6 -6 -6 -5 -5
-9 -9 -9 -9 -9 -8 -8 -8 -8 -8 -8 -7 -7 -7 -7 -7 -7 -8 -8 -7 -7 -6 -6 -6 -6 -6 -6 -7 -7 -7 -8 -8 -8 -8 -8 -8 -7 -7 -7 -7 -7 -7 -7 -6 -6 -6 -6 -5 -5
-9 -9 -10 -10 -9 -9 -8 -8 -8 -8 -8 -8 -7 -7 -7 -7 -8 -8 -8 -7 -7 -7 -7 -6 -6 -6 -7 -7 -7 -7 -7 -8 -8 -8 -8 -8 -8 -8 -8 -8 -7 -7 -7 -7 -6 -6 -6 -6 -5
-9 -10 -10 -10 -10 -9 -9 -8 -9 -9 -8 -7 -7 -7 -6 -7 -8 -8 -8 -8 -8 -8 -8 -7 -8 -8 -7 -7 -7 -7 -7 -8 -8 -8 -8 -8 -8 -8 -8 -8 -8 -8 -7 -7 -7 -6 -6 -6 -6
-9 -10 -10 -10 -10 -9 -9 -9 -8 -9 -8 -8 -7 -7 -8 -8 -8 -8 -8 -8 -8 -8 -8 -8 -8 -8 -8 -7 -8 -8 -8 -8 -8 -8 -8 -8 -8 -8 -8 -8 -8 -8 -7 -7 -7 -7 -6 -6 -7
-9 -10 -10 -10 -10 -10 -9 -9 -9 -8 -8 -8 -8 -8 -8 -8 -8 -9 -9 -9 -9 -8 -9 -8 -8 -8 -7 -7 -8 -8 -8 -8 -8 -8 -8 -8 -9 -9 -9 -9 -8 -8 -8 -7 -7 -7 -7 -7 -7
-9 -9 -10 -10 -10 -10 -9 -9 -9 -9 -8 -8 -8 -8 -9 -8 -9 -9 -9 -8 -8 -8 -8 -9 -8 -8 -8 -8 -8 -8 -8 -8 -8 -8 -9 -9 -9 -9 -9 -9 -9 -8 -8 -7 -8 -7 -7 -7 -7
-8 -9 -10 -10 -10 -10 -9 -9 -9 -9 -9 -8 -8 -8 -9 -8 -9 -8 -8 -8 -9 -8 -8 -8 -9 -9 -9 -8 -8 -8 -8 -8 -8 -8 -9 -9 -9 -10 -9 -9 -9 -8 -8 -8 -7 -7 -8 -8 -7
-8 -9 -10 -10 -10 -10 -9 -9 -9 -9 -9 -8 -8 -9 -9 -8 -8 -8 -8 -8 -8 -8 -8 -8 -8 -9 -9 -9 -9 -9 -8 -8 -9 -9 -9 -9 -10 -10 -10 -9 -9 -9 -8 -8 -8 -7 -7 -7 -7
-8 -9 -9 -9 -9 -9 -9 -9 -9 -9 -9 -9 -9 -9 -8 -8 -8 -8 -8 -8 -8 -9 -9 -8 -8 -9 -10 -9 -9 -9 -9 -9 -9 -9 -9 -10 -10 -10 -10 -10 -9 -9 -9 -8 -8 -7 -7 -7 -7
-8 -8 -8 -8 -9 -9 -9 -9 -9 -9 -9 -8 -8 -8 -8 -8 -8 -8 -8 -8 -9 -9 -8 -9 -9 -9 -9 -10 -9 -9 -9 -9 -9 -9 -10 -10 -10 -10 -10 -10 -9 -9 -9 -8 -8 -8 -8 -8 -8
-8 -8 -8 -8 -9 -9 -9 -9 -9 -9 -8 -8 -8 -9 -8 -8 -8 -8 -8 -8 -8 -9 -8 -9 -8 -9 -10 -9 -9 -9 -10 -10 -9 -10 -10 -10 -10 -10 -10 -10 -9 -9 -9 -8 -9 -8 -8 -8 -8
-8 -8 -9 -9 -8 -8 -9 -9 -9 -9 -8 -8 -8 -8 -8 -8 -8 -8 -8 -8 -8 -9 -9 -9 -9 -9 -9 -10 -10 -10 -10 -10 -10 -10 -10 -10 -10 -10 -10 -10 -9 -9 -9 -9 -9 -9 -9 -9 -8
-8 -8 -8 -8 -8 -7 -8 -8 -8 -9 -8 -8 -8 -8 -8 -8 -8 -8 -8 -8 -8 -8 -9 -9 -9 -9 -9 -10 -10 -10 -10 -10 -11 -11 -11 -10 -10 -10 -10 -10 -10 -9 -9 -9 -9 -9 -9 -9 -9
-8 -8 -8 -8 -7 -7 -8 -7 -7 -8 -8 -8 -8 -8 -8 -8 -8 -8 -8 -8 -8 -8 -8 -9 -9 -9 -9 -9 -10 -10 -10 -11 -11 -11 -11 -11 -10 -10 -10 -10 -10 -10 -9 -10 -9 -10 -10 -9 -9
-8 -8 -8 -7 -7 -7 -7 -7 -7 -7 -8 -8 -8 -8 -8 -9 -9 -9 -8 -8 -8 -8 -8 -9 -9 -9 -9 -9 -9 -9 -10 -10 -11 -11 -11 -11 -11 -11 -10 -10 -10 -10 -10 -10 -10 -10 -10 -9 -10
-7 -8 -8 -8 -7 -7 -7 -7 -8 -8 -8 -8 -8 -8 -9 -9 -9 -9 -9 -9 -9 -9 -9 -8 -9 -9 -9 -9 -10 -10 -10 -10 -11 -11 -11 -11 -11 -11 -11 -11 -11 -11 -10 -10 -10 -10 -10 -10 -10
-8 -8 -8 -8 -8 -8 -8 -8 -8 -8 -8 -8 -9 -9 -9 -9 -9 -10 -10 -10 -10 -9 -9 -10 -10 -10 -10 -10 -10 -11 -11 -11 -10 -11 -11 -11 -11 -11 -11 -11 -11 -11 -11 -11 -11 -11 -11 -11 -10
-8 -8 -8 -8 -8 -8 -8 -8 -8 -8 -8 -8 -8 -9 -9 -8 -9 -9 -10 -10 -10 -9 -10 -10 -10 -10 -10 -10 -10 -10 -11 -11 -12 -12 -12 -12 -12 -11 -11 -11 -11 -11 -11 -11 -11 -11 -11 -11 -11
-8 -8 -8 -8 -8 -8 -8 -8 -8 -8 -8 -8 -8 -8 -8 -9 -9 -9 -9 -9 -9 -10 -10 -11 -11 -12 -12 -11 -11 -10 -10 -12 -12 -12 -11 -11 -12 -11 -11 -11 -11 -12 -11 -11 -11 -12 -11 -11 -12
-8 -8 -8 -8 -8 -8 -8 -8 -8 -8 -8 -8 -8 -9 -9 -8 -9 -9 -10 -9 -9 -9 -10 -11 -12 -12 -12 -11 -12 -12 -11 -11 -12 -12 -11 -11 -11 -10 -10 -11 -11 -12 -12 -11 -11 -11 -12 -12 -12
-8 -8 -8 -8 -8 -8 -8 -8 -8 -8 -8 -9 -9 -9 -9 -9 -9 -9 -9 -9 -10 -10 -10 -11 -11 -12 -12 -12 -11 -11 -11 -11 -11 -11 -11 -11 -11 -9 -10 -10 -11 -11 -11 -11 -11 -11 -12 -12 -11
-9 -9 -9 -9 -9 -8 -9 -9 -8 -9 -9 -9 -9 -9 -9 -9 -10 -10 -10 -10 -10 -10 -10 -10 -10 -10 -11 -11 -11 -11 -11 -12 -11 -11 -11 -10 -11 -11 -11 -11 -11 -12 -12 -12 -12 -12 -12 -12 -11
-9 -9 -9 -9 -9 -9 -9 -9 -9 -9 -10 -10 -10 -10 -10 -10 -10 -10 -10 -10 -10 -10 -10 -10 -10 -10 -11 -12 -12 -12 -12 -12 -12 -12 -11 -11 -11 -11 -11 -11 -12 -12 -12 -13 -12 -12 -13 -12 -12
-10 -10 -10 -10 -10 -10 -10 -9 -9 -10 -10 -10 -11 -11 -10 -10 -10 -10 -10 -10 -10 -10 -10 -10 -10 -10 -10 -11 -12 -11 -11 -12 -12 -12 -11 -12 -13 -12 -12 -12 -13 -12 -12 -13 -12 -12 -13 -12 -12
-10 -10 -11 -11 -10 -10 -10 -10 -10 -10 -11 -11 -11 -11 -11 -11 -11 -11 -11 -10 -11 -11 -11 -11 -11 -11 -11 -11 -11 -12 -12 -12 -13 -12 -12 -12 -11 -11 -12 -12 -12 -12 -12 -12 -12 -12 -12 -12 -13
-11 -11 -11 -12 -11 -11 -10 -10 -11 -11 -12 -12 -12 -11 -11 -11 -12 -11 -11 -11 -11 -11 -11 -11 -11 -11 -11 -11 -11 -12 -12 -12 -13 -13 -13 -12 -12 -12 -11 -12 -12 -12 -12 -12 -13 -12 -12 -12 -12
-12 -11 -12 -12 -12 -12 -11 -11 -11 -12 -12 -12 -12 -12 -12 -12 -12 -12 -12 -12 -11 -11 -11 -12 -12 -12 -12 -12 -12 -13 -13 -13 -13 -13 -13 -13 -12 -12 -12 -13 -13 -13 -13 -12 -12 -13 -12 -12 -12
-12 -12 -12 -13 -12 -13 -12 -11 -12 -12 -13 -13 -13 -13 -13 -13 -13 -13 -12 -12 -12 -12 -12 -12 -12 -12 -13 -13 -13 -13 -13 -13 -13 -14 -14 -14 -13 -12 -13 -13 -13 -13 -13 -12 -12 -12 -13 -12 -12
Height
5922 5924 5924 5925 5931 5929 5931 5933 5933 5934 5933 5932 5932 5932 5933 5933 5932 5934 5933 5933 5934 5935 5935 5935 5936 5936 5938 5938 5938 5937 5936 5935 5935 5935 5935 5934 5934 5934 5933 5931 5929 5928 5926 5925 5923 5921 5920 5920 5918
5921 5923 5924 5923 5925 5929 5932 5932 5934 5934 5933 5932 5932 5932 5932 5932 5932 5933 5932 5933 5933 5933 5934 5934 5934 5935 5936 5937 5938 5937 5936 5936 5935 5935 5935 5935 5935 5934 5932 5931 5929 5926 5925 5923 5922 5920 5918 5918 5917
5920 5922 5924 5922 5922 5928 5932 5933 5934 5933 5933 5932 5933 5933 5933 5932 5932 5932 5932 5932 5932 5933 5933 5934 5934 5935 5935 5936 5937 5936 5936 5936 5935 5934 5935 5935 5934 5933 5932 5931 5929 5926 5924 5922 5920 5919 5917 5915 5914
5919 5921 5924 5921 5921 5925 5930 5933 5933 5932 5932 5931 5932 5934 5934 5932 5931 5932 5931 5932 5931 5932 5933 5933 5934 5935 5936 5936 5936 5936 5936 5936 5935 5934 5935 5934 5933 5932 5932 5930 5927 5925 5924 5921 5919 5917 5915 5914 5913
5917 5920 5922 5920 5921 5924 5928 5931 5932 5931 5932 5931 5932 5932 5933 5933 5932 5932 5932 5931 5931 5931 5932 5932 5932 5933 5934 5935 5935 5936 5936 5936 5935 5934 5933 5933 5932 5931 5930 5929 5927 5925 5923 5920 5918 5916 5914 5913 5912
5917 5919 5922 5920 5920 5922 5926 5930 5931 5930 5931 5931 5932 5932 5932 5931 5931 5930 5931 5931 5930 5930 5931 5932 5933 5932 5933 5933 5934 5934 5934 5934 5933 5932 5931 5930 5929 5929 5928 5926 5924 5923 5921 5920 5918 5915 5913 5911 5910
5915 5918 5920 5919 5920 5921 5924 5926 5929 5930 5930 5931 5931 5930 5929 5929 5929 5929 5929 5930 5929 5929 5929 5930 5930 5932 5932 5932 5932 5933 5933 5933 5932 5930 5929 5928 5927 5925 5924 5923 5921 5920 5919 5918 5916 5915 5912 5911 5909
5914 5917 5919 5919 5918 5920 5922 5924 5926 5927 5929 5930 5930 5929 5928 5927 5927 5927 5928 5927 5927 5927 5927 5927 5928 5929 5930 5930 5929 5929 5929 5929 5929 5929 5928 5926 5925 5922 5921 5919 5918 5917 5916 5915 5914 5913 5911 5909 5908
5912 5915 5917 5917 5916 5918 5920 5923 5924 5925 5926 5927 5928 5928 5928 5926 5926 5926 5926 5925 5925 5925 5925 5924 5924 5926 5926 5927 5926 5926 5926 5926 5926 5926 5926 5924 5922 5920 5918 5917 5915 5914 5913 5912 5910 5911 5910 5908 5906
5910 5913 5914 5913 5915 5916 5918 5920 5922 5924 5924 5926 5927 5926 5926 5926 5925 5925 5925 5924 5923 5923 5922 5922 5921 5921 5920 5921 5922 5922 5923 5923 5923 5923 5922 5921 5919 5917 5915 5913 5911 5910 5910 5909 5907 5907 5906 5905 5903
5907 5908 5910 5911 5913 5915 5916 5918 5919 5921 5922 5924 5924 5924 5923 5924 5923 5922 5922 5921 5921 5920 5920 5920 5918 5916 5914 5916 5917 5918 5919 5919 5920 5919 5919 5918 5916 5913 5911 5909 5908 5907 5906 5906 5904 5903 5901 5901 5900
5904 5905 5908 5910 5912 5913 5914 5915 5916 5917 5920 5920 5919 5920 5920 5920 5920 5920 5919 5918 5918 5917 5917 5916 5914 5912 5910 5911 5913 5913 5914 5916 5915 5916 5915 5914 5912 5911 5908 5906 5905 5904 5904 5902 5901 5900 5898 5897 5896
5903 5906 5908 5909 5910 5911 5911 5912 5913 5913 5915 5914 5916 5916 5916 5917 5917 5917 5917 5916 5916 5914 5913 5912 5911 5909 5909 5908 5909 5910 5910 5911 5912 5912 5911 5909 5908 5907 5904 5903 5901 5900 5900 5899 5898 5896 5894 5894 5894
5902 5903 5904 5904 5905 5907 5909 5909 5910 5909 5910 5911 5913 5913 5914 5914 5914 5914 5914 5913 5912 5911 5909 5908 5907 5906 5905 5905 5905 5906 5907 5907 5908 5908 5907 5906 5904 5902 5900 5899 5897 5896 5895 5895 5894 5893 5892 5893 5892
5898 5899 5900 5900 5901 5903 5905 5905 5905 5906 5905 5907 5909 5910 5911 5911 5911 5910 5909 5908 5906 5905 5904 5903 5903 5902 5901 5901 5900 5901 5902 5902 5903 5902 5902 5900 5899 5897 5896 5894 5892 5891 5890 5890 5890 5890 5888 5889 5889
5897 5898 5897 5898 5899 5901 5904 5903 5903 5902 5902 5903 5905 5906 5907 5907 5906 5904 5902 5900 5902 5901 5901 5900 5899 5897 5896 5895 5895 5894 5894 5894 5895 5895 5895 5894 5892 5891 5890 5888 5887 5885 5887 5887 5886 5886 5886 5886 5886
5896 5896 5895 5896 5896 5897 5899 5898 5899 5898 5897 5898 5899 5900 5900 5901 5898 5897 5897 5897 5896 5896 5895 5894 5894 5893 5893 5891 5889 5889 5889 5889 5888 5887 5887 5886 5886 5885 5884 5883 5880 5881 5883 5883 5882 5881 5882 5882 5880
5893 5894 5894 5892 5892 5892 5894 5894 5894 5893 5893 5894 5893 5894 5893 5893 5892 5891 5889 5889 5889 5889 5889 5890 5889 5889 5888 5888 5886 5884 5883 5882 5881 5881 5880 5879 5879 5878 5878 5876 5875 5876 5878 5877 5876 5876 5877 5876 5875
5887 5888 5889 5889 5886 5887 5887 5887 5887 5888 5888 5888 5888 5887 5886 5885 5885 5884 5882 5882 5882 5882 5883 5883 5884 5884 5884 5883 5881 5879 5879 5877 5874 5872 5872 5875 5874 5872 5872 5871 5871 5871 5872 5870 5869 5870 5871 5869 5867
5881 5882 5882 5882 5881 5882 5881 5880 5881 5881 5881 5880 5880 5879 5878 5877 5875 5875 5875 5874 5874 5875 5874 5874 5875 5877 5877 5878 5877 5874 5869 5868 5867 5866 5866 5866 5866 5864 5863 5863 5864 5863 5864 5864 5864 5864 5865 5862 5861
5874 5875 5874 5875 5874 5874 5874 5875 5874 5874 5874 5873 5873 5872 5871 5870 5868 5866 5866 5866 5866 5866 5866 5867 5868 5867 5869 5870 5871 5870 5864 5861 5858 5855 5856 5854 5852 5852 5851 5852 5852 5852 5853 5857 5855 5854 5855 5853 5855
5867 5866 5866 5866 5867 5867 5867 5868 5866 5865 5865 5865 5864 5864 5863 5862 5860 5859 5858 5858 5858 5857 5857 5857 5856 5857 5859 5858 5858 5857 5855 5852 5849 5847 5846 5846 5844 5844 5827 5837 5841 5842 5844 5845 5844 5843 5845 5848 5848
5860 5859 5858 5858 5858 5858 5861 5858 5859 5858 5858 5857 5855 5854 5853 5852 5851 5850 5849 5849 5849 5849 5847 5846 5845 5845 5845 5845 5846 5842 5844 5839 5836 5834 5833 5835 5833 5819 5834 5833 5832 5830 5835 5837 5837 5836 5839 5842 5842
5852 5852 5851 5850 5850 5849 5852 5850 5848 5850 5850 5848 5848 5846 5845 5843 5841 5840 5839 5839 5839 5838 5837 5836 5834 5831 5831 5832 5831 5830 5830 5829 5826 5823 5820 5822 5825 5827 5823 5822 5821 5823 5826 5829 5830 5832 5832 5834 5835
5843 5843 5843 5842 5841 5841 5841 5840 5841 5841 5840 5840 5838 5837 5835 5834 5833 5830 5829 5829 5829 5829 5828 5826 5824 5822 5820 5820 5820 5818 5816 5815 5814 5810 5805 5806 5806 5813 5815 5813 5813 5814 5814 5817 5820 5823 5825 5826 5827
5834 5835 5834 5832 5831 5831 5830 5828 5832 5832 5831 5830 5828 5826 5824 5824 5822 5821 5819 5818 5816 5814 5814 5814 5813 5810 5808 5805 5803 5803 5801 5800 5799 5797 5797 5799 5799 5802 5802 5804 5805 5807 5809 5810 5813 5814 5816 5818 5820
5825 5825 5825 5822 5821 5819 5819 5820 5821 5820 5819 5819 5817 5816 5814 5812 5811 5811 5809 5807 5805 5802 5800 5799 5798 5797 5796 5794 5792 5789 5788 5784 5782 5781 5781 5784 5784 5787 5789 5792 5796 5799 5801 5801 5802 5805 5807 5809 5811
5815 5816 5815 5814 5812 5808 5809 5808 5809 5810 5810 5808 5806 5805 5803 5802 5800 5800 5799 5796 5794 5792 5790 5788 5785 5783 5782 5780 5778 5776 5772 5768 5766 5765 5767 5768 5768 5770 5772 5776 5780 5785 5788 5790 5791 5794 5797 5800 5801
5803 5802 5804 5803 5802 5800 5799 5797 5799 5797 5798 5796 5794 5792 5792 5790 5789 5788 5787 5785 5784 5783 5781 5778 5775 5772 5769 5765 5762 5760 5758 5756 5755 5753 5752 5752 5754 5756 5757 5761 5765 5770 5772 5774 5777 5781 5784 5788 5791
5788 5790 5791 5789 5792 5789 5786 5787 5790 5786 5785 5783 5781 5780 5780 5779 5777 5775 5774 5772 5771 5770 5769 5767 5763 5760 5758 5754 5750 5748 5746 5744 5742 5742 5742 5739 5739 5742 5745 5746 5750 5755 5758 5760 5763 5766 5770 5774 5777
Wind_Speed
12 11 11 11 9 11 6 5 4 4 6 6 9 9 9 9 10 10 9 10 10 7 6 4 3 3 5 6 5 5 8 9 6 3 3 6 8 10 13 15 17 17 17 16 14 13 14 15 15
14 11 13 13 14 9 3 4 6 4 2 4 4 7 7 9 8 8 8 9 7 8 4 3 4 5 6 7 7 6 7 6 4 2 3 5 7 10 13 16 17 17 16 15 15 15 14 14 15
17 13 12 13 14 12 7 4 2 5 4 3 2 3 5 8 9 8 10 10 10 10 8 4 6 8 8 8 9 7 6 5 3 2 1 4 7 10 14 16 16 16 17 16 16 16 16 16 17
19 14 14 15 17 14 12 7 5 3 4 5 1 2 4 12 11 11 10 11 12 12 9 6 6 8 10 10 10 9 7 5 4 2 3 5 8 11 14 15 15 17 18 18 16 16 15 15 16
20 17 17 18 17 15 15 11 4 6 8 6 5 6 10 15 9 8 7 9 10 13 14 11 7 7 9 10 10 11 10 7 5 4 5 7 9 12 13 16 18 18 19 18 18 16 15 14 14
22 20 19 19 18 16 13 13 9 10 12 12 12 12 24 22 12 5 5 7 9 9 11 12 11 5 7 8 9 11 11 10 8 7 6 8 10 11 15 18 18 19 19 19 19 19 17 14 13
21 23 23 20 20 18 14 14 13 14 9 9 15 25 25 24 16 8 5 6 8 7 6 5 6 9 7 6 9 10 10 11 11 10 10 11 12 13 17 17 17 17 19 19 19 18 18 18 15
22 25 25 24 20 20 18 17 17 15 16 16 19 20 24 21 16 6 5 8 10 8 6 5 8 7 8 8 8 11 12 13 13 13 13 13 14 16 17 18 17 17 18 18 17 17 18 18 18
20 26 28 29 26 23 22 20 19 22 23 23 21 17 19 13 12 9 6 4 4 5 4 9 12 13 11 12 12 13 15 15 16 15 16 16 17 20 20 21 22 20 19 19 19 17 18 19 18
16 23 32 33 31 26 25 22 22 22 23 22 16 17 16 13 10 10 5 4 1 3 7 6 6 11 17 16 16 17 17 17 17 17 18 18 20 22 24 26 24 22 19 20 21 19 18 18 17
16 21 32 33 32 30 29 29 27 27 27 23 22 19 16 12 11 10 8 2 4 8 9 9 6 13 18 19 16 16 21 20 19 19 20 22 24 26 30 30 27 23 20 21 21 21 20 18 17
17 19 23 27 31 32 31 30 29 29 26 15 17 16 13 16 14 11 9 5 3 8 9 2 7 7 6 15 19 20 20 21 21 21 23 25 29 32 32 29 27 25 22 22 22 22 23 20 15
11 11 14 19 28 32 32 33 32 29 22 20 18 20 18 17 19 16 10 7 5 9 9 8 7 4 5 7 8 12 17 20 23 24 27 29 32 31 29 28 27 24 22 23 22 22 23 22 17
10 10 12 17 21 23 30 35 34 31 26 24 21 21 19 15 18 20 18 15 11 7 10 12 10 10 9 13 13 14 15 18 22 25 28 30 29 29 26 26 25 22 22 21 21 19 22 22 21
16 15 17 20 20 20 21 24 27 28 27 24 22 22 21 21 21 21 22 20 18 13 11 11 12 11 12 9 7 10 16 17 21 25 26 27 27 27 27 27 27 23 22 20 17 16 17 20 18
15 16 18 19 19 18 17 21 22 23 24 23 22 22 22 23 24 24 25 25 23 21 16 13 13 15 19 21 19 14 15 17 22 24 25 26 27 28 29 29 28 28 24 21 20 18 17 18 20
15 15 18 19 20 20 20 23 23 25 27 26 25 25 25 24 26 29 28 27 28 26 22 20 19 19 23 25 23 23 20 20 24 25 26 29 30 31 32 32 33 30 27 25 24 21 19 21 19
18 19 20 25 27 27 26 28 29 30 31 30 30 30 29 27 28 30 31 30 29 28 27 29 27 24 24 25 24 24 25 25 25 30 32 34 33 34 34 34 35 33 30 29 28 26 22 24 24
25 25 25 27 31 31 30 30 30 29 30 30 30 31 33 33 31 32 33 32 31 29 29 28 27 28 27 29 31 32 28 31 33 32 38 38 37 35 34 36 34 34 31 29 29 27 25 24 26
27 27 28 28 29 28 28 28 27 26 25 25 25 27 29 30 33 33 34 35 34 32 32 33 33 29 31 31 36 39 39 36 36 35 36 36 37 39 38 36 35 37 35 32 28 25 23 25 25
28 27 28 28 27 26 25 25 25 26 26 26 26 26 28 30 32 34 33 35 35 34 32 34 34 35 34 40 41 45 47 42 43 46 44 43 42 41 43 41 38 38 39 37 32 26 26 26 19
27 28 29 27 27 27 26 27 27 27 27 29 30 31 31 32 33 35 37 36 34 34 35 37 37 38 37 36 46 51 54 50 50 50 50 50 47 42 39 38 42 40 42 39 28 28 17 20 13
29 28 29 30 31 32 28 32 31 30 31 32 32 32 34 35 35 36 36 37 37 37 40 43 46 47 44 44 43 51 50 52 57 57 53 52 48 43 47 42 34 30 35 21 20 16 18 21 16
33 31 33 34 34 36 30 34 38 33 33 32 32 34 34 35 37 38 37 37 39 39 40 41 43 46 49 48 49 49 53 54 62 67 64 55 50 46 31 33 26 28 24 22 22 22 21 23 22
34 33 34 36 36 37 35 38 36 35 34 35 35 36 36 36 36 37 36 36 38 38 39 40 42 46 50 53 53 56 57 60 64 68 49 37 35 46 43 36 30 28 26 25 28 29 29 26 24
36 35 36 38 39 40 40 43 39 37 35 35 35 37 38 38 38 37 37 37 38 40 40 41 43 45 45 45 49 53 62 66 68 64 67 57 52 51 41 42 42 39 34 31 32 34 34 31 28
37 37 35 39 42 43 44 43 42 39 38 37 37 38 39 39 39 38 37 39 40 42 43 44 44 43 44 46 48 52 56 66 68 65 54 56 58 57 52 49 47 48 44 36 34 37 36 33 32
39 38 37 38 42 45 47 46 43 40 39 40 39 38 39 40 38 37 37 39 41 41 41 44 46 46 45 47 47 47 48 52 49 44 39 37 36 41 50 54 53 51 48 44 39 38 38 34 31
43 44 42 41 43 44 45 48 45 45 42 41 42 42 41 39 37 37 39 39 40 40 39 40 43 44 44 45 46 43 44 45 49 47 42 44 42 40 42 50 51 50 48 43 43 44 42 38 34
48 46 43 43 40 42 47 49 44 45 41 41 42 40 38 38 39 40 39 40 40 40 39 40 41 42 41 42 41 38 40 44 45 47 47 35 34 38 36 41 44 49 53 49 47 48 46 45 39
Wind_Direction
174 172 188 212 208 224 231 196 223 164 126 117 96 91 85 73 69 54 44 26 17 5 331 338 264 241 257 250 218 163 135 123 116 99 50 32 25 18 15 11 5 359 352 350 344 344 342 337 334
178 177 183 202 214 199 188 150 166 181 240 148 107 74 67 55 42 19 17 11 10 7 342 290 251 258 255 249 232 192 163 151 132 106 31 8 7 5 6 359 354 353 348 348 342 339 337 333 330
176 181 172 201 228 208 194 180 112 147 178 208 160 88 58 34 22 2 0 360 6 1 352 293 252 260 262 250 240 213 191 182 170 166 339 352 354 355 355 352 346 348 344 342 337 333 335 337 336
173 172 173 204 224 234 216 223 240 198 206 259 273 317 19 33 16 9 356 356 356 357 359 352 283 257 261 257 246 232 225 218 223 237 314 335 341 346 347 347 344 336 333 336 334 331 329 329 329
177 170 174 214 225 229 240 239 242 223 238 272 309 340 4 347 4 337 358 3 11 17 19 13 353 280 261 243 239 239 238 237 250 267 301 305 320 335 338 338 332 325 324 330 327 323 323 323 323
184 174 180 212 229 242 239 244 247 248 273 282 297 332 354 358 349 305 306 341 6 22 21 14 6 334 278 262 234 234 236 243 251 258 268 284 298 316 320 321 313 320 312 317 321 320 321 321 321
189 182 186 210 229 245 249 244 240 257 286 296 322 340 348 346 335 304 302 314 319 344 355 348 355 346 321 284 265 246 249 255 260 260 267 278 291 300 309 309 309 307 317 309 312 316 319 321 320
195 194 193 204 228 238 250 261 270 267 274 289 304 336 338 332 329 344 282 305 293 291 329 308 291 290 299 286 256 246 251 258 258 258 261 273 279 290 302 302 307 308 310 309 304 304 313 318 316
195 200 197 204 222 237 248 254 262 272 281 290 307 318 337 330 330 339 27 15 348 302 284 319 298 262 269 270 265 256 252 252 255 254 258 267 274 287 292 294 294 298 303 311 301 300 304 316 312
196 198 202 214 223 231 246 255 261 270 278 286 301 310 320 317 316 325 21 42 358 308 294 315 333 272 244 246 259 256 255 257 256 253 257 263 274 280 284 289 290 287 289 306 304 300 295 301 303
192 200 207 220 228 233 244 254 268 272 277 289 294 295 305 321 301 307 337 355 342 294 279 300 316 285 257 249 254 261 256 254 258 256 257 263 270 276 285 289 285 283 288 299 302 298 296 294 293
202 212 215 226 230 235 241 257 265 269 282 285 280 293 311 318 313 310 324 333 18 298 296 223 331 345 264 247 253 257 257 254 254 255 256 261 269 278 285 284 286 287 289 296 299 297 290 290 281
217 221 224 230 235 238 248 254 262 272 279 279 285 292 297 300 304 302 304 299 279 288 293 278 293 324 261 254 246 254 249 253 259 260 261 266 273 280 281 281 284 287 285 295 295 295 291 291 291
208 206 211 225 230 236 243 250 257 266 271 275 281 288 297 301 296 299 302 299 290 263 281 279 279 297 245 256 251 259 255 256 258 263 269 275 276 278 278 281 282 284 284 289 289 290 298 304 305
212 210 216 231 238 234 236 247 253 258 265 273 275 275 286 293 293 293 294 290 281 261 253 258 262 254 230 239 236 258 260 257 260 263 269 273 272 273 276 278 281 282 279 286 294 290 296 301 307
217 225 229 237 246 253 254 259 264 269 273 276 279 283 284 284 287 287 278 281 284 277 273 269 261 241 232 242 256 250 248 252 259 264 268 268 270 272 274 276 278 279 282 289 289 294 296 299 297
219 230 246 249 254 257 257 263 267 269 273 276 278 281 283 281 279 281 283 284 286 289 275 269 262 257 249 239 250 248 254 250 252 257 261 265 266 268 269 273 276 279 285 283 285 286 291 287 284
239 241 249 263 266 267 271 271 273 276 276 278 279 281 278 278 279 283 284 284 280 281 284 283 269 257 253 246 252 255 255 252 253 254 255 256 262 266 271 274 278 277 276 279 277 278 282 281 279
262 262 260 258 265 272 274 273 275 275 274 273 273 275 276 276 273 275 276 277 277 276 275 275 280 270 255 254 252 255 260 265 260 256 258 259 263 269 274 277 273 275 273 271 273 280 280 278 277
266 267 265 263 263 264 270 277 283 284 283 280 278 272 273 276 278 275 274 277 278 278 276 276 282 284 272 262 261 256 252 254 263 266 270 271 267 264 264 268 269 268 269 269 270 270 273 274 276
266 267 265 263 264 266 270 275 279 280 283 283 280 275 274 275 273 273 271 272 275 275 274 277 280 283 279 280 272 262 255 258 262 263 262 263 261 264 261 260 262 266 267 268 260 258 261 261 263
272 269 268 269 272 271 275 280 282 284 286 286 282 279 277 275 274 272 273 275 273 275 276 279 280 279 278 268 264 277 255 262 262 263 263 263 265 259 258 251 259 264 264 268 261 240 257 269 260
273 273 275 275 275 274 273 277 277 280 284 284 284 281 280 280 278 275 273 272 272 274 273 273 273 272 265 267 268 271 266 266 262 260 259 257 271 263 265 266 263 272 258 275 286 277 298 298 289
272 272 274 275 275 275 280 278 278 282 283 283 282 280 280 278 276 274 273 272 271 273 274 273 274 274 273 271 273 271 272 271 265 263 271 257 262 261 275 263 264 279 284 278 283 288 288 285 286
271 271 271 273 276 279 278 276 279 284 284 283 283 281 279 277 276 275 274 274 273 273 274 274 275 275 273 274 275 276 275 273 272 277 272 273 273 273 277 282 285 269 272 276 277 282 280 278 280
269 271 272 275 275 276 277 278 282 282 283 283 283 284 283 282 279 278 279 279 277 276 275 274 276 279 281 281 282 277 276 274 274 276 275 277 280 272 280 280 284 282 279 275 273 273 277 275 271
269 269 271 272 274 275 277 279 282 284 284 285 285 284 282 279 279 281 281 280 278 278 280 281 281 281 281 282 280 277 279 277 275 279 276 281 281 276 267 272 274 269 269 268 269 270 270 272 270
265 266 267 268 272 274 277 280 282 281 283 286 286 282 280 282 285 284 282 279 278 279 280 282 284 285 284 285 287 287 284 286 283 274 283 275 282 284 272 263 263 261 263 266 268 263 263 266 265
263 265 269 273 272 276 278 278 281 285 289 290 288 285 285 285 285 284 282 281 280 279 282 284 284 284 285 286 290 292 290 288 281 275 277 263 275 278 283 256 253 256 259 263 268 265 261 262 265
269 269 270 272 274 272 272 274 283 287 288 287 286 288 288 287 287 288 288 286 284 286 289 290 287 285 285 287 289 288 287 284 283 277 271 262 262 263 265 262 257 261 268 261 263 266 268 264 263